Location: Knowlton
(51.2333°N, 1.2667°E)
Time: 08:45:47
(UTC+00:00)

Cosmos 1634 Rocket - Pass Details

Date: 18 April 2021
Orbit: 958 x 993 km, 82.9° (Epoch: 05 May)

Event Time Altitude Azimuth Distance (km) Brightness Sun altitude
Rises 19:58:46 0° 180° (S) 3,683 6.7 -9.6°
Reaches altitude 10° 20:01:17 10° 179° (S) 2,735 6.0 -10.0°
Maximum altitude 20:07:31 73° 96° (E) 1,025 4.0 -10.8°
Drops below altitude 10° 20:13:45 10° 13° (NNE) 2,729 6.6 -11.6°
Sets 20:16:15 0° 12° (NNE) 3,676 7.3 -11.9°
